Arslanbob

Kyrgyzstan     41˚19′45″N   72˚56′27″E
temp.,
°C
wind,
m/s
gust,
m/s
humid.,
%
clouds,
%
prec.,
mm/h
press.,
hPa
HPBL,
m
29 november, sun
sun2900:00−5˚nne2293100 1.8 104338
03:00−6˚nne338671 0.1 104335
06:00−6˚nne447854 0.2 104346
09:00−7˚n44688 0.0 104347
12:00−1˚nnw12844 0.0 1039148
15:00−1˚sw11890 0.0 1037138
18:00−6˚n22720 0.0 103921
21:00−6˚n34610 0.0 103926
30 november, mon
mon3000:00−6˚nne34570 0.0 103925
03:00−6˚nne34550 0.0 103726
06:00−6˚nne34530 0.0 103829
09:00−5˚nne44540 0.0 103639
12:00ne11820 0.0 103457
15:00+1˚ne11850 0.0 103140
18:00−3˚nne345833 0.0 103229
21:00−3˚nne3448100 0.0 103132
1 december, tue
tue100:00−3˚nne3347100 0.0 102931
03:00−3˚nne2252100 0.0 102827
06:00−2˚nne3354100 0.0 102737
09:00−1˚nne2357100 0.1 102732
12:00+2˚e1191100 0.1 102722
15:00e1196100 0.1 102734
18:00−2˚ne338096 0.1 102925
21:00−1˚nne457781 0.0 103153
2 december, wed
wed200:00+1˚nne458286 0.1 103174
03:00n447168 0.0 103037
06:00nne336984 0.0 103124
09:00nne3469100 0.0 103129
12:00+3˚nne2396100 0.0 102925
15:00+3˚ne1299100 0.0 102723
18:00+2˚nne2373100 0.0 102722
21:00+2˚nne2372100 0.1 102826
3 december, thu
thu300:00+2˚nne2392100 0.9 102725
03:00+1˚nne3398100 1.8 102755
06:00+1˚ne2399100 4.3 102740
09:00+2˚nne3497100 1.9 102761
12:00+3˚nne33100100 2.0 102537
15:00+3˚ne2398100 0.0 102224
18:00+2˚nw0185100 0.4 102322
21:00+1˚nne3497100 1.9 102370